Flag for Netherlands Weather past 2 weeks in Nijmegen, Netherlands

Now
37 °F

Fog.


Feels Like: 30 °F
Forecast: 46 / 53 °F
Wind: 10 mph from Southwest

Location: Volkel

Current Time: Dec 21, 2014 at 7:19:27 AM

Latest Report: Dec 21, 2014 at 6:55 AM


Visibility: 5 mi

Pressure: 30.36 "Hg

Humidity: 100%

Dew point: 37 °F

Location of NijmegenLocation

Historic Weather in Nijmegen — Graph

°F

Nijmegen temperature yesterday

Maximum temperature yesterday: 48 °F (at 2:55 PM)
Minimum temperature yesterday: 39 °F (at 12:25 AM)
Average temperature yesterday: 43 °F

Past Weeks' High & Low Weather Summary

 TemperatureHumidityPressure
High55 °F (Dec 18, 3:55 PM)100% (Dec 6, 7:55 AM)30.36 "Hg (Dec 6, 7:55 AM)
Low28 °F (Dec 14, 5:55 AM)62% (Dec 10, 2:25 PM)29.33 "Hg (Dec 12, 12:55 PM)
Average42 °F90%29.93 "Hg
* Reported Dec 6 6:25 AM — Dec 21 6:00 AM, Nijmegen, Weather by CustomWeather, © 2014

Note: Actual official high and low records may vary slightly from our data, if they occured in-between our weather recording intervals... More about our weather records

Advertising

Nijmegen weather history for previous 24 hours

 ConditionsComfort  
Time TempWeatherWind HumidityBarometerVisibility
6:00 AM
Dec 21
39 °FFog.10 mph93%30.36 "Hg6 mi
5:55 AM39 °FFog.10 mph93%30.36 "Hg6 mi
5:25 AM37 °FPassing clouds.8 mph100%30.36 "HgN/A
4:55 AM37 °FPassing clouds.8 mph93%30.36 "HgN/A
4:25 AM39 °FOvercast.9 mph93%30.36 "HgN/A
3:55 AM41 °FOvercast.9 mph93%30.36 "HgN/A
3:25 AM41 °FOvercast.9 mph93%30.36 "HgN/A
2:55 AM41 °FOvercast.8 mph93%30.36 "HgN/A
2:25 AM39 °FChilly.9 mph93%30.36 "HgN/A
1:55 AM41 °FPassing clouds.9 mph87%30.36 "HgN/A
1:25 AM43 °FOvercast.9 mph87%30.33 "HgN/A
12:55 AM43 °FPartly cloudy.8 mph81%30.33 "HgN/A
12:25 AM41 °FQuite cool.8 mph87%30.33 "HgN/A
11:55 PM
Dec 20
41 °FQuite cool.9 mph87%30.33 "HgN/A
11:25 PM41 °FPassing clouds.8 mph87%30.30 "HgN/A
10:55 PM41 °FQuite cool.8 mph87%30.30 "HgN/A
10:25 PM43 °FQuite cool.7 mph81%30.30 "HgN/A
9:55 PM41 °FQuite cool.8 mph87%30.27 "HgN/A
9:25 PM43 °FQuite cool.8 mph81%30.27 "HgN/A
8:55 PM43 °FPassing clouds.3 mph81%30.24 "HgN/A
8:25 PM45 °FPassing clouds.8 mph76%30.24 "HgN/A
7:55 PM43 °FQuite cool.12 mph81%30.21 "HgN/A
7:25 PM43 °FQuite cool.12 mph81%30.18 "HgN/A
6:55 PM43 °FPassing clouds.12 mph81%30.18 "HgN/A
6:25 PM43 °FQuite cool.13 mph81%30.18 "HgN/A
5:55 PM45 °FLight rain. Partly cloudy.16 mph76%30.15 "HgN/A
5:25 PM43 °FPassing clouds.13 mph81%30.12 "HgN/A
4:55 PM45 °FLight rain. Partly cloudy.15 mph87%30.12 "HgN/A
4:25 PM46 °FScattered clouds.17 mph76%30.09 "HgN/A
3:56 PM46 °FLight rain. Broken clouds.21 mph76%30.09 "Hg4 mi
3:25 PM48 °FBroken clouds.18 mph71%30.09 "HgN/A
2:55 PM48 °FBroken clouds.21 mph71%30.07 "HgN/A
2:25 PM46 °FPassing clouds.21 mph76%30.07 "HgN/A
1:55 PM46 °FMostly cloudy.20 mph76%30.07 "HgN/A
1:25 PM46 °FPartly sunny.17 mph76%30.07 "HgN/A
12:55 PM46 °FCloudy.17 mph76%30.09 "HgN/A
12:25 PM46 °FMostly cloudy.22 mph76%30.07 "HgN/A
11:59 AM45 °FLight rain. Broken clouds.17 mph81%30.09 "HgN/A
11:25 AM45 °FLight rain. Mostly cloudy.16 mph81%30.09 "HgN/A
10:55 AM45 °FBroken clouds.20 mph81%30.09 "HgN/A
10:25 AM43 °FPartly sunny.16 mph87%30.09 "HgN/A
9:55 AM43 °FOvercast.17 mph87%30.09 "HgN/A
9:25 AM43 °FPartly sunny.16 mph81%30.09 "HgN/A
8:55 AM43 °FPartly sunny.16 mph81%30.09 "HgN/A
8:25 AM41 °FPassing clouds.18 mph87%30.09 "HgN/A
7:55 AM41 °FPartly cloudy.18 mph87%30.09 "HgN/A
7:25 AM41 °FQuite cool.16 mph87%30.09 "HgN/A
Weather by CustomWeather, © 2014

See weather overviewHow to use our weather pages